Starlink 30769

operational
NORAD ID: 58138 Int'l Des: 2023-162 Owner: SPXS Country: US Constellation: starlink
LEOCIRCULAR

About Starlink 30769

Description loading...

Live Position

Loading 3D Globe...

Upcoming Passes

Altitude History

Altitude vs Time

uPlot chart will show altitude changes over time

Two-Line Element Set

1 58138U 23162W 25350.37847897 .00001608 00000-0 13410-3 0 9994
2 58138 43.0021 226.1279 0001178 258.4167 101.6543 15.02535120119764
Epoch: Dec 16, 2025 • Age: 26 hours

Current Status

Altitude 560.8 km
Velocity 7.59 km/s
Sub-Earth Point 32.90°N, 102.62°E
Launch Date Oct 22, 2023
Age 2.1 years
Type internet

Technical Details

Classification Payload
Mass 730.00 kg
Dry Mass 700.00 kg
Total Mass 730.00 kg
Length 0.30 m
Diameter 4.10 m
Span 29.00 m
Shape Box + pan
Manufacturer SPXS
Bus Type Starlink V2M
Phase Status In Orbit
Owner/State SPXS/US

Large Constellations

Loading constellations...